EW1890 Weather Reports


time (UTC)temp
C
wind
direction
speed
KPH
gust
KPH
rain 1hr
cm
rain 24hr
cm
rain mn
cm
humidity
%
barometer
mb
20260504190805 17 279 4.8 9.7 0.00 0.00 0.00 21 1010.1
20260504190306 18 261 1.6 9.7 0.00 0.00 0.00 21 1010.2
20260504185814 17 9 0.0 14.5 0.00 0.00 0.00 21 1010.3
20260504185323 17 5 1.6 14.5 0.00 0.00 0.00 21 1010.3
20260504184811 17 331 3.2 9.7 0.00 0.00 0.00 23 1010.3
20260504184313 17 355 3.2 14.5 0.00 0.00 0.00 24 1010.5
20260504183849 16 346 6.4 14.5 0.00 0.00 0.00 25 1010.5
20260504183310 16 348 3.2 16.1 0.00 0.00 0.00 27 1010.5
20260504182818 15 73 3.2 17.7 0.00 0.00 0.00 27 1010.6
20260504182327 15 103 11.3 19.3 0.00 0.00 0.00 27 1010.7
20260504181808 15 126 9.7 20.9 0.00 0.00 0.00 27 1010.7
20260504181316 15 113 8.0 20.9 0.00 0.00 0.00 27 1010.7
20260504180825 16 132 14.5 25.7 0.00 0.00 0.00 26 1010.7
20260504180335 16 130 11.3 25.7 0.00 0.00 0.00 25 1010.7
20260504175816 17 122 14.5 22.5 0.00 0.00 0.00 25 1010.8
20260504175324 16 101 8.0 22.5 0.00 0.00 0.00 26 1010.9
20260504174812 16 115 14.5 22.5 0.00 0.00 0.00 27 1011.0
20260504174313 16 90 0.0 16.1 0.00 0.00 0.00 25 1011.0
20260504173821 16 111 4.8 16.1 0.00 0.00 0.00 25 1011.0
20260504173309 16 111 3.2 14.5 0.00 0.00 0.00 25 1011.0
20260504172817 16 111 1.6 14.5 0.00 0.00 0.00 27 1011.1
20260504172319 16 121 8.0 14.5 0.00 0.00 0.00 28 1011.1
20260504171806 15 61 0.0 14.5 0.00 0.00 0.00 28 1011.1
20260504171313 15 17 4.8 20.9 0.00 0.00 0.00 27 1011.1
20260504170823 16 5 8.0 20.9 0.00 0.00 0.00 26 1011.0
20260504170330 15 308 1.6 11.3 0.00 0.00 0.00 28 1011.2
20260504160312 13 106 11.3 17.7 0.00 0.00 0.00 34 1011.3
20260504150807 10 109 1.6 6.4 0.00 0.00 0.00 41 1011.9
20260504150315 9 103 0.0 4.8 0.00 0.00 0.00 41 1012.0
20260504141321 5 72 0.0 0.0 0.00 0.00 0.00 55 1012.1
20260504140829 4 72 0.0 0.0 0.00 0.00 0.00 58 1012.1
20260504140311 3 72 0.0 0.0 0.00 0.00 0.00 59 1012.1
20260504130806 0 336 0.0 0.0 0.00 0.00 0.00 66 1012.0
20260504130316 -1 336 0.0 3.2 0.00 0.00 0.00 67 1012.0
20260504120313 -2 337 0.0 0.0 0.00 0.00 0.00 67 1011.8
20260504110310 -2 336 0.0 0.0 0.00 0.00 0.00 67 1012.0
20260504100315 -2 64 4.8 6.4 0.00 0.00 0.00 66 1012.1
20260504081823 0 94 0.0 0.0 0.00 0.00 0.00 66 1012.6
20260504081305 0 94 0.0 4.8 0.00 0.00 0.00 66 1012.6
20260504080813 0 94 0.0 4.8 0.00 0.00 0.00 65 1012.6
20260504080322 0 125 0.0 0.0 0.00 0.00 0.00 64 1012.7
20260504070317 2 265 8.0 9.7 0.00 0.00 0.00 57 1012.8
20260504050324 6 252 8.0 12.9 0.00 0.00 0.00 46 1013.5
20260504045813 6 247 9.7 12.9 0.00 0.00 0.00 46 1013.5
20260504045321 6 253 9.7 12.9 0.00 0.00 0.00 47 1013.5
20260504044829 5 244 9.7 12.9 0.00 0.00 0.00 48 1013.5
20260504044310 5 248 8.0 12.9 0.00 0.00 0.00 47 1013.5
20260504043840 5 242 8.0 11.3 0.00 0.00 0.00 47 1013.5
20260504043307 6 240 6.4 9.7 0.00 0.00 0.00 45 1013.7
20260504042809 6 254 8.0 12.9 0.00 0.00 0.00 44 1013.7
20260504042316 7 249 9.7 12.9 0.00 0.00 0.00 43 1013.7
20260504041804 7 250 8.0 11.3 0.00 0.00 0.00 43 1013.7
20260504041312 7 250 9.7 11.3 0.00 0.00 0.00 43 1013.7
20260504040821 7 258 8.0 12.9 0.00 0.00 0.00 42 1013.7
20260504040330 7 271 8.0 12.9 0.00 0.00 0.00 43 1013.6
20260504035811 7 255 9.7 12.9 0.00 0.00 0.00 43 1013.7
20260504035320 7 252 9.7 11.3 0.00 0.00 0.00 43 1013.7
20260504034808 7 251 8.0 11.3 0.00 0.00 0.00 42 1013.7
20260504034316 7 242 8.0 11.3 0.00 0.00 0.00 42 1013.6
20260504033817 7 244 8.0 9.7 0.00 0.00 0.00 41 1013.6
20260504033309 8 236 6.4 11.3 0.00 0.00 0.00 41 1013.5
20260504032834 8 240 6.4 11.3 0.00 0.00 0.00 40 1013.5
20260504032304 8 238 8.0 11.3 0.00 0.00 0.00 39 1013.5
20260504031814 8 236 8.0 11.3 0.00 0.00 0.00 39 1013.4
20260504031314 8 225 8.0 11.3 0.00 0.00 0.00 39 1013.4
20260504030820 8 240 8.0 12.9 0.00 0.00 0.00 38 1013.3
20260504030309 9 235 8.0 12.9 0.00 0.00 0.00 37 1013.3
20260504025810 9 231 9.7 12.9 0.00 0.00 0.00 37 1013.3
20260504025318 9 232 9.7 12.9 0.00 0.00 0.00 36 1013.3
20260504024807 10 233 9.7 12.9 0.00 0.00 0.00 36 1013.2
20260504024336 10 230 9.7 12.9 0.00 0.00 0.00 36 1013.1
20260504023845 10 230 9.7 11.3 0.00 0.00 0.00 35 1013.1
20260504023333 11 229 8.0 11.3 0.00 0.00 0.00 34 1013.0
20260504022813 11 231 6.4 9.7 0.00 0.00 0.00 34 1013.0
20260504022345 11 225 6.4 12.9 0.00 0.00 0.00 32 1013.0
20260504021809 12 227 9.7 16.1 0.00 0.00 0.00 31 1013.0
20260504021317 12 215 11.3 16.1 0.00 0.00 0.00 31 1013.0
20260504020825 13 219 11.3 20.9 0.00 0.00 0.00 30 1013.0
20260504020306 13 231 12.9 20.9 0.00 0.00 0.00 29 1013.0
20260504015814 13 209 14.5 20.9 0.00 0.00 0.00 29 1012.8
20260504015305 14 217 12.9 24.1 0.00 0.00 0.00 28 1012.8
20260504014804 14 215 16.1 24.1 0.00 0.00 0.00 27 1012.8
20260504014313 15 227 16.1 29.0 0.00 0.00 0.00 27 1012.8
20260504013850 15 219 20.9 29.0 0.00 0.00 0.00 25 1012.9
20260504013310 15 227 19.3 27.4 0.00 0.00 0.00 25 1012.9
20260504012839 15 236 19.3 29.0 0.00 0.00 0.00 24 1012.9
20260504012327 16 213 17.7 29.0 0.00 0.00 0.00 24 1012.9
20260504011815 16 236 14.5 29.0 0.00 0.00 0.00 24 1013.0
20260504011324 16 248 17.7 25.7 0.00 0.00 0.00 23 1012.9
20260504010805 16 226 16.1 25.7 0.00 0.00 0.00 22 1013.0
20260504010314 16 242 17.7 25.7 0.00 0.00 0.00 22 1012.9
20260504005844 17 232 17.7 29.0 0.00 0.00 0.00 22 1012.9
20260504005312 17 244 16.1 29.0 0.00 0.00 0.00 22 1012.9
20260504004821 17 226 19.3 27.4 0.00 0.00 0.00 21 1013.0
20260504004322 17 234 19.3 32.2 0.00 0.00 0.00 22 1013.0
20260504003810 17 220 22.5 33.8 0.00 0.00 0.00 20 1013.0
20260504003318 17 223 24.1 33.8 0.00 0.00 0.00 20 1013.0
20260504002827 17 234 25.7 33.8 0.00 0.00 0.00 20 1013.0
20260504002329 18 209 19.3 32.2 0.00 0.00 0.00 19 1013.0
20260504001815 18 223 22.5 32.2 0.00 0.00 0.00 20 1013.0
20260504001324 18 234 20.9 30.6 0.00 0.00 0.00 18 1013.0
20260504000811 18 267 11.3 29.0 0.00 0.00 0.00 18 1013.0
20260504000313 18 234 17.7 30.6 0.00 0.00 0.00 18 1013.1
20260503235821 18 219 22.5 29.0 0.00 0.00 0.00 18 1013.0
20260503235310 18 215 20.9 37.0 0.00 0.00 0.00 17 1013.1
20260503234818 18 269 24.1 38.6 0.00 0.00 0.00 17 1013.1
20260503234319 19 218 25.7 38.6 0.00 0.00 0.00 17 1013.0
20260503233807 18 340 9.7 30.6 0.00 0.00 0.00 18 1013.1
20260503233315 18 311 19.3 27.4 0.00 0.00 0.00 18 1013.2
20260503232817 18 271 12.9 24.1 0.00 0.00 0.00 17 1013.2
20260503232306 18 268 8.0 29.0 0.00 0.00 0.00 18 1013.2
20260503231813 17 213 19.3 27.4 0.00 0.00 0.00 19 1013.3
20260503231321 17 230 14.5 27.4 0.00 0.00 0.00 18 1013.3
20260503230829 17 242 14.5 22.5 0.00 0.00 0.00 18 1013.3
20260503230338 17 260 16.1 20.9 0.00 0.00 0.00 18 1013.5
20260503225815 17 260 11.3 25.7 0.00 0.00 0.00 18 1013.5
20260503225345 18 242 16.1 30.6 0.00 0.00 0.00 17 1013.4
20260503224811 19 251 14.5 30.6 0.00 0.00 0.00 16 1013.5
20260503224341 19 259 16.1 30.6 0.00 0.00 0.00 16 1013.4
20260503223829 18 222 14.5 27.4 0.00 0.00 0.00 16 1013.4
20260503223338 19 213 17.7 27.4 0.00 0.00 0.00 16 1013.5
20260503222819 20 227 17.7 29.0 0.00 0.00 0.00 16 1013.4
20260503222306 20 211 14.5 32.2 0.00 0.00 0.00 16 1013.5
20260503221835 20 207 14.5 24.1 0.00 0.00 0.00 16 1013.5
20260503221344 20 287 14.5 33.8 0.00 0.00 0.00 16 1013.7
20260503220811 19 275 20.9 33.8 0.00 0.00 0.00 16 1013.7
20260503220312 20 269 19.3 35.4 0.00 0.00 0.00 16 1013.8
20260503215820 20 251 22.5 35.4 0.00 0.00 0.00 16 1014.0
20260503215308 19 257 17.7 29.0 0.00 0.00 0.00 17 1014.0
20260503214816 18 223 14.5 25.7 0.00 0.00 0.00 17 1014.1
20260503214317 17 219 16.1 20.9 0.00 0.00 0.00 18 1014.2
20260503213805 17 209 8.0 14.5 0.00 0.00 0.00 19 1014.2
20260503213312 17 160 0.0 19.3 0.00 0.00 0.00 18 1014.3
20260503212813 17 226 11.3 24.1 0.00 0.00 0.00 18 1014.5
20260503212321 17 240 9.7 24.1 0.00 0.00 0.00 17 1014.5
20260503211830 18 238 11.3 24.1 0.00 0.00 0.00 17 1014.5
20260503211316 18 216 16.1 24.1 0.00 0.00 0.00 18 1014.6
20260503210826 17 243 3.2 8.0 0.00 0.00 0.00 18 1014.6
20260503210313 17 209 1.6 19.3 0.00 0.00 0.00 17 1014.7
20260503205843 17 228 9.7 22.5 0.00 0.00 0.00 17 1014.7
20260503205330 17 224 11.3 25.7 0.00 0.00 0.00 17 1014.8
20260503204811 17 224 20.9 25.7 0.00 0.00 0.00 18 1014.8
20260503204320 17 249 6.4 12.9 0.00 0.00 0.00 17 1014.8
20260503203829 18 163 3.2 17.7 0.00 0.00 0.00 17 1014.8
20260503203316 18 188 9.7 35.4 0.00 0.00 0.00 16 1014.8
20260503202823 19 172 16.1 35.4 0.00 0.00 0.00 16 1015.0
20260503202312 18 194 19.3 25.7 0.00 0.00 0.00 16 1015.0
20260503201842 18 243 11.3 25.7 0.00 0.00 0.00 15 1015.0
20260503201329 18 197 4.8 20.9 0.00 0.00 0.00 15 1015.1
20260503200810 17 281 9.7 22.5 0.00 0.00 0.00 16 1015.1
20260503200319 18 157 11.3 30.6 0.00 0.00 0.00 15 1015.1
20260503195809 17 214 14.5 30.6 0.00 0.00 0.00 16 1015.3
20260503195310 17 217 11.3 20.9 0.00 0.00 0.00 16 1015.3
20260503194817 18 176 12.9 20.9 0.00 0.00 0.00 15 1015.3
20260503194327 19 221 9.7 22.5 0.00 0.00 0.00 15 1015.4
20260503193814 18 307 11.3 25.7 0.00 0.00 0.00 16 1015.4
20260503193322 17 232 14.5 40.2 0.00 0.00 0.00 17 1015.5
20260503192831 17 263 11.3 40.2 0.00 0.00 0.00 16 1015.6
20260503192318 17 189 6.4 12.9 0.00 0.00 0.00 16 1015.7
20260503191826 17 339 6.4 19.3 0.00 0.00 0.00 17 1015.6
20260503191313 17 163 8.0 22.5 0.00 0.00 0.00 17 1015.8